Portada
METAR-TAF:

METAR-TAF

Aeroports :

Sitiawan, Malàisia

latitud: 04-13N, longitud: 100-42E, altitud: 7 m

Observació

L'informe es va fer fa 52 minuts, a les 11:00 UTC
Vent 3 kt amb direcció variable
Temperatura 31°C
Humitat 71%
Pressió 1008 hPa
Visibilitat 10 km o més
Escasses núvols a una alçada de 2200 ft

METAR: WMBA 241100Z VRB03KT 9999 FEW022 31/25 Q1008

Hora: 19:52 (11:52 UTC)


TAF: manca

Observacions i pronòstics meteorològics de més de 4000 aeroports (METAR i TAF).

Les estacions disponibles són els punts grocs i vermells al mapa.

Posi el ratolí al punt desitjat per veure el nom de l'estació.

Feu clic per veure les observacions i els pronòstics meteorològics.

Per canviar el mapa: feu clic els botons verds amb una creu de color negre per apropar; al botó verd amb un guió per allunyar la imatge; o en les fletxes verdes per a mapes adjacents.


METAR-TAF: